Regional Weather Roundup
Issued by NWS

Home | Current Version | Previous Version | Graphics & Text | Print | Product List | Glossary On
Versions: 1 2 3 4 5 6 7 8 9 10 11 12 13 14 15 16 17 18 19 20 21 22 23 24 25 26 27 28 29 30 31 32 33 34 35 36 37 38 39 40 41 42 43 44 45 46 47 48 49 50
000
ASUS45 KSLC 222310
RWRUT

UTAH REGIONAL WEATHER ROUNDUP
NATIONAL WEATHER SERVICE SALT LAKE CITY UT
500 PM MDT FRI AUG 22 2014

UTZ001>011-023>025-230000-

NORTHERN UTAH

CITY           SKY/WX    TMP DP  RH WIND       PRES   REMARKS
HILL AFB       RAIN      59  54  82 NW13      30.03R
LOGAN          CLOUDY    61  54  77 N8        30.04S
OGDEN          LGT RAIN  60  55  83 N13       30.00R
PROVO AIRPORT  MOSUNNY   77  54  44 NW28G38   29.88F
SALT LAKE CITY LGT RAIN  62  56  80 N25G32    29.95R
VERNAL         LGT RAIN  75  49  39 E5        29.97F
WENDOVER       MOSUNNY   70  50  49 S12       29.96R
HEBER CITY     PTSUNNY   79  39  24 S8        29.93S
WEST JORDAN    PTSUNNY   63  61  94 NW23G35   29.99R

$$

UTZ012>022-026-027-230000-

SOUTHERN UTAH

CITY           SKY/WX    TMP DP  RH WIND       PRES   REMARKS
BRYCE CANYON   CLOUDY    63  49  60 CALM      30.19F
CEDAR CITY     MOSUNNY   78  41  26 SW21G28   30.04F
MILFORD        SUNNY     83  45  26 SW22G35   29.96F
MOAB/CYNLANDS  MOSUNNY   79  50  36 E6        29.95F
PRICE          LGT RAIN  63  53  70 W17G24    30.05R
ST GEORGE      PTCLDY    88  52  29 NW8G20    29.91F

$$

REGIONAL REPORTS     COLORADO/ARIZONA

CITY           SKY/WX    TMP DP  RH WIND       PRES   REMARKS
CRAIG, CO      CLOUDY    64  54  69 NW3       30.09F
GRAND JUNCTION PTSUNNY   74  52  46 E8        30.00F
RIFLE          CLOUDY    75  48  38 W8        30.02F
MONTROSE       RAIN      64  57  78 SW5       30.13R
CORTEZ         RAIN      56  55  97 NE12      30.17F FOG
PAGE, AZ       CLOUDY    80  47  31 SW5       29.99F
GRAND CANYON   MOSUNNY   70  45  40 SW10      30.17F
KINGMAN        MOSUNNY   83  51  33 SW8G20    30.00F
FLAGSTAFF      MOSUNNY   65  48  54 SW13      30.23S

$$

REGIONAL REPORTS    NEVADA/IDAHO/WYOMING

CITY           SKY/WX    TMP DP  RH WIND       PRES   REMARKS
LAS VEGAS, NV  MOSUNNY   93  51  23 S15G24    29.81F HX  90
ELY            TSTM      54  51  90 NE16      30.04R FOG
ELKO           MOSUNNY   78  34  20 NW13      29.92S
POCATELLO, ID  PTSUNNY   61  54  77 E13       30.01R
BURLEY         LGT RAIN  58  51  78 SE8       29.95F
EVANSTON, WY   LGT RAIN  54  46  74 N23G32    30.11R
ROCK SPRINGS   PTSUNNY   62  50  64 NW14      30.06F

$$


USA.gov is the U.S. government's official web portal to all federal, state and local government web resources and services.